IRIDIUM 33 DEB, 36012

Orbit data source: Space-Track

IRIDIUM 33 DEB, 36012 is space debris in LEO originally from a launch on Sun, 14 Sep 1997 UTC launched from the Tyuratam Missile And Space Complex (TTMTR). The debris from Iridium 33, an American commercial communications satellite, has been tracked extensively since its accidental collision with the defunct Russian satellite Cosmos 2251 in 2009. This event, occurring at high speed in low Earth orbit (LEO), generated thousands of pieces of space debris, significantly increasing the risk of further collisions. The Iridium 33 debris cloud has impacted space traffic management and orbital debris mitigation strategies, making it a subject of ongoing study in space situational awareness.

Loading next visibility...
Identifier
36012, 1997-051UT
Orbit
LEO
Country
Flag of USUS
Related business
Manufacturer
Unknown
Mission
Spacecraft
Bus & Motor
Unknown
Mass
Unknown
Launch date (UTC)
1997-09-14 (28 years ago)
Launch vehicle
Unknown
Launch site
Tyuratam Missile And Space Complex (TTMTR)
Object type
Payload
Rocket body
Debris
Shape & HBR
Unknown shape, 0.1 m
Radar Cross Section
Small (<0.1 m²)

Expand to show TLE details & history
Last TLE update: 1 day ago

TLE from 1 day ago
0 IRIDIUM 33 DEB
1 36012U 97051UT  25302.48147480  .00013334  00000-0  52151-2 0  9992
2 36012  86.4434 325.3491 0220018  44.6946 317.1739 14.17053957648579
Epoch: 2025-10-29T11:33Z
TLE epoch observation values (Epoch: 2025-10-29T11:33:19.422Z)
Latitude
0.00003°
Longitude
113.96419°
Altitude
723.589 km
Speed
7.553 km/s
True Right ascension
21h 41m 23s
True Declination
0° 00' 00"
Sunlit
Object was in daylight at epoch
Visualization orbit readout
Latitude
Unknown
Longitude
Unknown
Altitude
Unknown
Speed
Unknown
Apparent Right ascension
Unknown
Apparent Declination
Unknown
Sunlit
N/A
Visualization observer readout
Local Sidereal Time
15:40:23
Azimuth
Unknown
Elevation
Unknown
Doppler factor
Unknown
Orbital elements
Apogee altitude
990.962 km
Perigee altitude
673.676 km
Semi-major axis
7,210.456 km
Eccentricity
0.022
Inclination
86.4434°
RAAN
325.3491°
Arg. of periapsis
44.6946°
True anomaly
315.42506°
Mean anomaly
317.1739°
Eccentric anomaly
316.30301°
Mean motion
3.54486 °/min
Orbital period
101.56 mins
BSTAR
0.0052151
Loading maneuver chart data...
Computing Atmospheric mass density...

Documentation

Showing up to 5 results
|